Location: Bouchavesnes-Bergen
(49.9859°N, 2.9203°E)
Time: 06:38:10
(UTC+00:00)

ISS - Visible Passes

Search period start: 04 December 2023 00:00
Search period end: 14 December 2023 00:00
Orbit: 415 x 417 km, 51.6° (Epoch: 04 December)

Date Brightness Start Highest point End Pass type
(mag) Time Alt. Az. Time Alt. Az. Time Alt. Az.
04 Dec -3.2 16:27:16 10° WNW 16:30:35 60° SSW 16:33:54 10° ESE visible
04 Dec -0.8 18:04:54 10° WSW 18:06:49 14° SW 18:08:43 10° S visible
05 Dec -1.2 17:15:48 10° W 17:18:26 21° SW 17:21:04 10° SSE visible
06 Dec -1.7 16:26:57 10° W 16:29:58 31° SSW 16:32:59 10° SSE visible
08 Dec -0.5 16:26:55 10° W 16:29:00 15° SW 16:31:03 10° S visible
